User: anonymous
Location: Camp Creek
(33.9000°N, 111.8167°W)
Time: 04:07:31
(UTC-07:00)
Language:

Cosmos 2322 Rocket - Orbit

View from above orbital plane
View from above orbital plane
View from above satellite
View from above satellite

Ground track
Ground track

The orbit data is extracted from the following two-line orbital elements,

1 23705U 95058B   14210.76123933  .00000212  00000-0  13389-3 0  3015
2 23705 071.0220 079.0422 0010595 105.2796 254.9499 14.15011958968173
Epoch (UTC): 29 July 2014 18:16:11
Eccentricity: 0.0010595
inclination: 71.0220°
perigee height: 834 km
apogee height: 850 km
right ascension of ascending node: 79.0422°
argument of perigee: 105.2796°
revolutions per day: 14.15011958
mean anomaly at epoch: 254.9499°
orbit number at epoch: 96817

The dashed part of the orbit path shows where the satellite is in the earth's shadow,  

DLR